[Iaude] MPEC A129: 2024 AE3 [a=2.01,e=0.50,i=6.6,H=24.1]
    mpec at marsden.cfa.harvard.edu 
    mpec at marsden.cfa.harvard.edu
       
    Thu Jan 11 17:43:25 EST 2024
    
    
  
M.P.E.C. 2024-A129                             Issued 2024 January 11, 22:41 UT
     The Minor Planet Electronic Circulars contain information on unusual
         minor planets, routine data on comets and natural satellites,
         and occasional editorial announcements.  They are published
    on behalf of Division F of the International Astronomical Union by the
          Minor Planet Center, Smithsonian Astrophysical Observatory,
                          Cambridge, MA 02138, U.S.A.
			  
             Prepared using the Tamkin Foundation Computer Network
                              MPC at CFA.HARVARD.EDU
            URL https://www.minorplanetcenter.net/    ISSN 1523-6714
                                    2024 AE3                                    
Observations:
     K24A03E  C2023 11 18.36638002 29 45.568-14 21 26.89         22.78GVEA129F51
     K24A03E  C2023 11 18.37859502 29 44.606-14 21 36.44         22.82GVEA129F51
     K24A03E  C2023 11 18.39081402 29 43.635-14 21 45.96         22.88GVEA129F51
     K24A03E  C2023 12 09.35027402 09 00.353-16 10 53.80         21.83GVEA129F52
     K24A03E  C2023 12 09.36134202 08 59.627-16 10 51.00         21.67GVEA129F52
     K24A03E  C2023 12 10.36780602 08 15.006-16 06 10.81         21.67GVEA129F52
     K24A03E  C2023 12 10.37045802 08 14.832-16 06 09.81         21.61GVEA129F52
     K24A03E  C2023 12 24.31879102 02 48.326-12 41 48.99         21.34GVEA129F51
     K24A03E  C2023 12 24.32934202 02 47.985-12 41 32.18         21.21GVEA129F51
     K24A03E  C2023 12 24.33985102 02 47.699-12 41 15.77         21.46GVEA129F51
     K24A03E  C2024 01 06.22307002 09 25.716-01 37 26.15         20.65GVEA129F51
     K24A03E  C2024 01 06.22589002 09 25.800-01 37 09.94         20.34GVEA129F51
     K24A03E*KC2024 01 10.67669 02 17 50.60 +07 44 37.8          19.9 GXEA129L51
     K24A03E KC2024 01 10.67793 02 17 50.71 +07 44 49.9          19.6 GXEA129L51
     K24A03E KC2024 01 10.67916 02 17 50.87 +07 45 02.1          19.9 GXEA129L51
     K24A03E 1C2024 01 10.70703 02 17 56.82 +07 49 28.2          20.0 VXEA129033
     K24A03E 1C2024 01 10.70761 02 17 56.88 +07 49 34.4          20.2 VXEA129033
     K24A03E 1C2024 01 10.70817 02 17 56.96 +07 49 40.4          20.5 VXEA129033
     K24A03E 1C2024 01 10.70953 02 17 57.09 +07 49 54.0          20.4 VXEA129033
     K24A03E KC2024 01 10.76223 02 17 59.90 +07 59 05.7          19.6 GXEA129L51
     K24A03E KC2024 01 10.76448 02 18 00.14 +07 59 29.2          19.8 GXEA129L51
     K24A03E KC2024 01 10.76672 02 18 00.40 +07 59 51.9          19.7 GXEA129L51
     K24A03E KB2024 01 10.77570 02 18 02.63 +08 01 21.8          20.0 GXEA129M45
     K24A03E KB2024 01 10.77887 02 18 02.98 +08 01 54.2          19.8 GXEA129M45
     K24A03E KB2024 01 10.78260 02 18 03.41 +08 02 32.7          19.7 GXEA129M45
     K24A03E KC2024 01 10.87459 02 18 15.09 +08 18 14.4          20.0 VqEA129L04
     K24A03E KC2024 01 10.87578 02 18 15.25 +08 18 26.5          20.1 VqEA129L04
     K24A03E KC2024 01 11.06754002 18 55.70 +08 52 48.7          19.8 GXEA129858
     K24A03E KC2024 01 11.07321502 18 56.31 +08 53 49.8          19.9 GXEA129858
     K24A03E KC2024 01 11.07895202 18 56.93 +08 54 51.1          19.8 GXEA129858
     K24A03E 1C2024 01 11.11457202 19 01.585+09 01 21.58         19.99GVEA129G96
     K24A03E 1C2024 01 11.12017002 19 02.219+09 02 22.06         19.99GVEA129G96
     K24A03E 1C2024 01 11.12578602 19 02.816+09 03 21.92         19.60GVEA129G96
     K24A03E 1C2024 01 11.13139502 19 03.421+09 04 22.01         19.96GVEA129G96
     K24A03E KB2024 01 11.73054 02 20 57.91 +10 56 14.3          19.3 GXEA129K35
     K24A03E KB2024 01 11.74556 02 20 59.25 +10 59 24.5          18.7 RZEA129106
     K24A03E KB2024 01 11.74579 02 21 00.13 +10 59 15.4          19.2 GXEA129K35
     K24A03E KB2024 01 11.74933 02 20 59.76 +11 00 09.1          19.7 RZEA129106
     K24A03E KB2024 01 11.75310 02 21 00.23 +11 00 53.5          19.7 RZEA129106
     K24A03E KB2024 01 11.75340 02 21 01.19 +11 00 44.8          19.4 GXEA129K35
     K24A03E KB2024 01 11.75687 02 21 00.81 +11 01 38.2          19.5 RZEA129106
     K24A03E KC2024 01 11.81035702 21 08.33 +11 12 14.0          19.6 GVEA129L01
     K24A03E KC2024 01 11.81183902 21 08.52 +11 12 31.6          19.8 GVEA129L01
     K24A03E KC2024 01 11.81332002 21 08.73 +11 12 48.8          19.9 GVEA129L01
     K24A03E KC2024 01 11.81480302 21 08.94 +11 13 06.5          19.8 GVEA129L01
     K24A03E KC2024 01 11.81628302 21 09.17 +11 13 24.1          19.7 GVEA129L01
     K24A03E KC2024 01 11.82577802 21 10.83 +11 15 21.2          20.1 GVEA129104
     K24A03E KB2024 01 11.82860402 21 13.17 +11 15 57.9          19.3 GXEA129958
     K24A03E KB2024 01 11.83325102 21 13.74 +11 16 52.7          19.8 GXEA129958
     K24A03E KC2024 01 11.83349902 21 12.00 +11 16 52.4          19.6 GVEA129104
     K24A03E KB2024 01 11.83794502 21 14.39 +11 17 49.7          19.5 GXEA129958
     K24A03E KC2024 01 11.83828102 21 13.08 +11 17 45.4          19.9 GVEA129587
     K24A03E KC2024 01 11.83994602 21 13.29 +11 18 04.8                VEA129587
     K24A03E KC2024 01 11.84161002 21 13.50 +11 18 24.3                VEA129587
Observer details:
033 Karl Schwarzschild Observatory, Tautenburg.  Observers S. Melnikov, C.
    Hogner, F. Ludwig, M. Hartmann, B. Stecklum.  Measurer B. Stecklum.
    1.34-m f/3 Schmidt + CCD.
104 San Marcello Pistoiese.  Observers P. Bacci, M. Maestripieri.  Measurers
    P. Bacci, L. Tesi, G. Fagioli.  0.60-m F4 Reflector + CCD.
106 Crni Vrh.  Observer J. Vales.  0.60-m f/3.3 reflector + CMO.
587 Sormano.  Observers F. Manca, A. Testa.  Measurer F. Manca.  0.5-m f/6.8
    reflector + CCD.
858 Tebbutt Observatory, Edgewood.  Observer F. B. Zoltowski.  0.51-m f/8.1
    Schmidt-Cassegrain + CCD.
958 Observatoire de Dax.  Observer P. Dupouy.  0.50-m f/4.5 Reflector + CMO.
F51 Pan-STARRS 1, Haleakala.  Observers J. Herman, T. Lowe, P. Minguez, A.
    Schultz, I. Smith.  Measurers K. Chambers, T. de Boer, J. Fairlamb, H.
    Gao, M. Huber, C.-C. Lin, E. Magnier, Y. Ramanjooloo, R. Wainscoat, R.
    Weryk.  1.8-m Ritchey-Chretien + CCD.
F52 Pan-STARRS 2, Haleakala.  Observers J. Herman, T. Lowe, P. Minguez, A.
    Schultz, I. Smith.  Measurers K. Chambers, T. de Boer, J. Fairlamb, H.
    Gao, M. Huber, C.-C. Lin, E. Magnier, Y. Ramanjooloo, R. Wainscoat, R.
    Weryk.  1.8-m Ritchey-Chretien + CCD.
G96 Mt. Lemmon Survey.  Observer J. K. Hogan.  Measurers T. Beuden, V. F.
    Carvajal, D. Fay, J. B. Fazekas, D. C. Fuls, A. R. Gibbs, A. D. Grauer, H.
    Groeller, J. K. Hogan, R. A. Kowalski, S. M. Larson, G. J. Leonard, D.
    Rankin, R. L. Seaman, F. C. Shelly, K. W. Wierzchos.  1.5-m reflector +
    10K CCD.
K35 Huenfelden.  Observer P. Remmel.  0.36-m f/1.9 reflector + CMO.
L01 Visnjan Observatory, Tican.  Observers K. Korlevic, L. Poropat.  Measurer
    K. Korlevic.  1.0-m f/2.9 reflector + CCD.
L04 ROASTERR-1 Observatory, Cluj-Napoca.  Observer L. Hudin.  0.3-m f/5
    reflector + CCD.
L51 MARGO, Nauchnyi.  Observer G. Borisov.  0.50-m f/1.9 reflector + CCD.
M45 Starhopper Observatory, Sfantu Gheorghe.  Observer F. Ursache.  0.41-m
    f/7.5 reflector + CMO.
Orbital elements:
2024 AE3                                                 Earth MOID = 0.0119 AU
Epoch 2023 Sept. 13.0 TT = JDT 2460200.5                Veres                   
M 317.24893              (2000.0)            P               Q                  
n   0.34675387     Peri.    1.91102     -0.36210155     -0.92588812             
a   2.0065739      Node   109.33095     +0.85369844     -0.37582757             
e   0.5034434      Incl.    6.55779     +0.37427456     -0.03853352             
P   2.84           H   24.13          G   0.15           U   6                  
Residuals in seconds of arc
231118 F51  0.0   0.2+    240110 033  0.5-  0.2-    240111 K35  0.2+  0.3+
231118 F51  0.0   0.1+    240110 L51  0.2+  0.1-    240111 106  0.1-  0.2+
231118 F51  0.2-  0.1-    240110 L51  0.0   0.5+    240111 106  0.8-  0.0
231209 F52  0.1+  0.1-    240110 L51  0.1+  0.3+    240111 K35  0.2-  0.4-
231209 F52  0.0   0.3-    240110 M45  0.2+  0.4+    240111 106  0.1+  0.1+
231210 F52  0.1-  0.2+    240110 M45  0.1+  0.4+    240111 L01  0.4+  0.2+
231210 F52  0.2-  0.3+    240110 M45  0.2+  0.8+    240111 L01  0.1+  0.2+
231224 F51  0.5+  0.6+    240110 L04  0.4+  0.4+    240111 L01  0.1+  0.2-
231224 F51  0.0   0.1+    240110 L04  0.4+  0.2+    240111 L01  0.0   0.1-
231224 F51  0.2+  0.8-    240111 858  0.1-  0.0     240111 L01  0.3+  0.1-
240106 F51  0.1-  0.2-    240111 858  0.1-  0.3+    240111 104  0.7-  0.2+
240106 F51  0.2+  0.1+    240111 858  0.2-  0.1+    240111 958  0.5+  0.4+
240110 L51  0.0   0.7+    240111 G96  0.2-  0.1+    240111 958  0.7-  0.2-
240110 L51  0.3-  0.3+    240111 G96  0.2+  0.4+    240111 104  0.2+  0.4-
240110 L51  0.1+  0.0     240111 G96  0.1+  0.2-    240111 958  0.8-  0.7+
240110 033  0.2-  0.6-    240111 G96  0.0   0.5-    240111 587  0.5+  0.4+
240110 033  0.3-  0.3-    240111 K35  0.3-  0.4-    240111 587  0.0   0.0
240110 033  0.1-  0.0     240111 106  0.1+  0.1+    240111 587  0.5-  0.3-
Ephemeris:
2024 AE3                 a,e,i = 2.01, 0.50, 7                   q = 0.9964
Date    TT    R. A. (2000) Decl.     Delta      r    Elong.  Phase     V
2023 12 12    02 07 09.4 -15 55 42   0.1609  1.0743   120.0    52.5    22.3
...
2023 12 27    02 03 01.4 -11 20 36   0.1045  1.0210   108.2    66.2    21.6
...
2024 01 04    02 06 58.4 -04 40 29   0.07368 1.0043   104.5    71.4    21.0
...
2024 01 10    02 16 06.9 +05 57 34   0.05134 0.9978   104.8    72.3    20.2
2024 01 11    02 18 42.8 +08 42 02   0.04785 0.9972   105.4    72.0    20.0
2024 01 12    02 21 49.6 +11 52 09   0.04449 0.9968   106.2    71.4    19.9
...
2024 01 18    03 06 34.7 +44 16 36   0.02956 0.9974   116.7    61.8    18.7
...
2024 01 26    11 18 52.4 +68 18 56   0.03852 1.0066   124.1    54.1    19.0
...
2024 02 10    13 00 29.4 +41 37 40   0.09549 1.0477   127.6    48.2    20.9
M. P. C. Staff               (C) Copyright 2024 MPC           M.P.E.C. 2024-A129
    
    
More information about the Iaude
mailing list